Regional Weather Roundup
Issued by NWS

Home | Current Version | Previous Version | Text Only | Print | Product List | Glossary On
Versions: 1 2 3 4 5 6 7 8 9 10 11 12 13 14 15 16 17 18 19 20 21 22 23 24 25 26 27 28
000
ASUS45 KREV 201410
RWRNV
NEVADA REGIONAL WEATHER ROUNDUP
NATIONAL WEATHER SERVICE RENO NV
700 AM PDT SUN AUG 20 2017

NOTE: "FAIR" INDICATES FEW OR NO CLOUDS BELOW 12,000 FEET WITH NO
SIGNIFICANT WEATHER AND/OR OBSTRUCTIONS TO VISIBILITY.

NVZ001-003-004-201500-
WESTERN NEVADA

CITY           SKY/WX    TMP DP  RH WIND       PRES   REMARKS
RENO           PTCLDY    66  48  52 CALM      30.08R
MINDEN         FAIR      50  48  93 SE3       30.10S
FALLON         MOCLDY    67  39  35 CALM      30.02R
LOVELOCK       MOCLDY    68  31  25 NE9       30.02R
HAWTHORNE      CLEAR     66  41  39 W3        30.04R
$$

NVZ002-CAZ072-073-201500-
NORTHERN AND CENTRAL SIERRA

CITY           SKY/WX    TMP DP  RH WIND       PRES   REMARKS
S. LAKE TAHOE  PTCLDY    49  44  83 S6        30.19R
TRUCKEE        PTCLDY    52  50  93 CALM      30.17S
SQUAW VLY 8000   N/A     57  37  47 NE1         N/A
SUSANVILLE     CLEAR     55  37  50 W5        30.09R
MAMMOTH LAKES  FAIR      43  35  74 N3        30.24S
BRIDGEPORT     FAIR      44  38  79 CALM      30.22R
$$

NVZ030-031-036-201500-
NORTHERN NEVADA

CITY           SKY/WX    TMP DP  RH WIND       PRES   REMARKS
ELKO           PTSUNNY   57  35  43 CALM      30.12R
WINNEMUCCA     PTCLDY    58  32  37 W8        30.08R
WENDOVER       MOSUNNY   71  35  26 W3        30.05R
$$

NVZ035-037-201500-
CENTRAL NEVADA

CITY           SKY/WX    TMP DP  RH WIND       PRES   REMARKS
ELY            SUNNY     51  31  46 S13       30.19R
EUREKA           N/A     53  34  48 S3        30.16R
$$

NVZ013-014-201500-
SOUTH CENTRAL NEVADA

CITY           SKY/WX    TMP DP  RH WIND       PRES   REMARKS
TONOPAH        CLEAR     61  34  36 N10       30.13R
$$

NVZ017-020-022-201500-
SOUTHERN NEVADA

CITY           SKY/WX    TMP DP  RH WIND       PRES   REMARKS
LAS VEGAS      MOSUNNY   83  47  28 CALM      29.90R
N. LAS VEGAS   SUNNY     79  46  31 NW3       29.90R
NELLIS AFB     SUNNY     82  45  27 N3        29.88R
HENDERSON      SUNNY     79  48  33 S6        29.94R
MERCURY        CLEAR     73  38  27 N5        29.97R
$$




USA.gov is the U.S. government's official web portal to all federal, state and local government web resources and services.